• Join FlightAware (Why Join?)
  • Login
  • US Flag 
Gobble Gobble! 
12:43AM EST


 

Airport Tracker/Info


-or-


 

Live Flight TrackerFlight Track Log ✈ UAL3740 ✈ 02-May-2013 ✈ KPVD - KIAD

Flight Track Log - Related Links

Times and Time Zones

All times are in EDT time to prevent confusion due to time zone crossing. See the UAL3740 flight status page for this flight to view local times or setup timezone preferences in your user account.

Time Position Orientation Groundspeed Altitude Reporting Facility
EDT Latitude Longitude Course Direction KTS MPH feet Rate Location/Type
10:08AM 41.6903 -71.5533 262° West 230 265 3,900  Level Boston Center
10:09AM 41.6828 -71.6283 262° West 285 328 4,000 660 Climbing Boston Center
10:10AM 41.7206 -71.7058 303° West 312 359 5,000 1,920 Climbing Boston Center
10:11AM 41.7875 -71.7411 339° North 305 351 8,200 2,580 Climbing Boston Center
10:12AM 41.8775 -71.7764 344° North 286 329 10,800 2,460 Climbing Boston Center
10:13AM 41.9650 -71.8036 347° North 298 343 13,200 2,400 Climbing Boston Center
10:14AM 42.0592 -71.8306 348° North 321 369 15,600 2,280 Climbing Boston Center
10:15AM 42.1489 -71.8633 345° North 337 388 17,800 1,800 Climbing Boston Center
10:16AM 42.1889 -71.9861 294° West 333 383 19,300 1,620 Climbing Boston Center
10:17AM 42.1853 -72.1431 268° West 347 399 21,100 1,800 Climbing Boston Center
10:18AM 42.1794 -72.3000 267° West 381 438 22,900 1,620 Climbing Boston Center
10:19AM 42.1711 -72.4625 266° West 401 461 24,400 1,500 Climbing Boston Center
10:20AM 42.1647 -72.6222 267° West 428 493 26,000 1,320 Climbing Boston Center
10:21AM 42.1353 -72.7789 256° West 438 504 27,100 1,020 Climbing Boston Center
10:22AM 42.0619 -72.8931 229° Southwest 438 504 28,100 1,260 Climbing Boston Center
10:23AM 41.9633 -73.0431 229° Southwest 459 528 29,700 1,560 Climbing Boston Center
10:24AM 41.8769 -73.1761 229° Southwest 471 542 31,300 1,140 Climbing Boston Center
10:25AM 41.7906 -73.3033 228° Southwest 471 542 32,000 300 Climbing Boston Center
10:26AM 41.7019 -73.4383 229° Southwest 478 550 32,000  Level Boston Center
10:29AM 41.4883 -73.7511 228° Southwest 488 562 32,000  Level New York Center
10:30AM 41.3956 -73.8853 227° Southwest 495 570 32,000  Level New York Center
10:31AM 41.3064 -74.0192 228° Southwest 500 575 32,000  Level New York Center
10:32AM 41.2108 -74.1578 228° Southwest 505 581 32,000 -360 Level New York Center
10:33AM 41.1067 -74.3014 226° Southwest 505 581 31,300 -1,320 Descending New York Center
10:34AM 41.0131 -74.4367 228° Southwest 505 581 29,500 -1,680 Descending New York Center
10:35AM 40.9214 -74.5664 227° Southwest 505 581 28,000 -780 Descending New York Center
10:36AM 40.8519 -74.7161 239° Southwest 494 568 28,000  Level New York Center
10:37AM 40.7822 -74.8656 238° Southwest 487 560 28,000  Level New York Center
10:38AM 40.7167 -75.0147 240° Southwest 480 552 28,000 -120 Level New York Center
10:39AM 40.6508 -75.1611 239° Southwest 475 547 27,800 -900 Descending New York Center
10:40AM 40.5828 -75.3100 239° Southwest 475 547 26,300 -1,740 Descending New York Center
10:41AM 40.5167 -75.4531 239° Southwest 475 547 24,300 -1,920 Descending New York Center
10:42AM 40.4506 -75.5903 238° Southwest 464 534 22,500 -1,860 Descending New York Center
10:43AM 40.3886 -75.7278 239° Southwest 452 520 20,700 -1,320 Descending New York Center
10:44AM 40.3314 -75.8489 238° Southwest 445 512 20,000 -360 Descending New York Center
10:45AM 40.2694 -75.9803 238° Southwest 440 506 20,000 -300 Level New York Center
10:46AM 40.2006 -76.1247 238° Southwest 435 501 19,400 -1,020 Descending New York Center
10:47AM 40.1450 -76.2425 238° Southwest 435 501 18,000 -1,200 Descending New York Center
10:48AM 40.0869 -76.3683 239° Southwest 418 481 17,100 -1,320 Descending New York Center
10:49AM 40.0244 -76.4989 238° Southwest 402 463 15,400 -720 Descending New York Center
10:51AM 39.9000 -76.7500 237° Southwest 387 445 15,000 -180 Descending Potomac TRACON
10:52AM 39.8500 -76.8667 241° Southwest 384 442 15,000 -240 Level Potomac TRACON
10:53AM 39.8000 -76.9833 241° Southwest 384 442 14,600 -1,140 Descending Potomac TRACON
10:54AM 39.7500 -77.1000 241° Southwest 380 437 12,900 -1,860 Descending Potomac TRACON
10:55AM 39.7000 -77.2000 237° Southwest 362 417 11,100 -1,500 Descending Potomac TRACON
10:56AM 39.6333 -77.3000 229° Southwest 339 390 10,000 -600 Descending Potomac TRACON
10:57AM 39.5667 -77.3333 201° Southwest 288 331 10,000 -780 Level Potomac TRACON
10:58AM 39.4833 -77.3500 189° South 290 334 8,600 -1,440 Descending Potomac TRACON
10:59AM 39.4167 -77.3667 191° South 269 310 7,200 -1,320 Descending Potomac TRACON
11:00AM 39.3333 -77.3667 180° South 265 305 6,000 -1,080 Descending Potomac TRACON
11:01AM 39.2667 -77.3667 180° South 268 308 5,100 -960 Descending Potomac TRACON
11:02AM 39.2000 -77.3667 180° South 257 296 4,200 -600 Descending Potomac TRACON
11:03AM 39.1167 -77.3500 171° South 259 298 4,000 -120 Descending Potomac TRACON
11:04AM 39.0500 -77.3500 180° South 253 291 4,000 -300 Level Potomac TRACON
11:05AM 38.9833 -77.3500 180° South 256 295 3,500 -540 Descending Potomac TRACON
11:06AM 38.9167 -77.3500 180° South 251 289 3,000 -300 Descending Potomac TRACON
11:07AM 38.8500 -77.3667 191° South 248 285 3,000 -360 Level Potomac TRACON
11:08AM 38.8000 -77.4000 207° Southwest 218 251 2,300 -540 Descending Potomac TRACON
11:09AM 38.8333 -77.4333 322° Northwest 175 201 2,000 -540 Descending Potomac TRACON
11:10AM 38.8833 -77.4333 360° North 141 162 1,300 -720 Descending Potomac TRACON
11:11AM 38.9333 -77.4500 349° North  Level FlightAware Approximate
11:18AM 38.9474 -77.4599 349° North  Level Estimated